Regional Weather Roundup
Issued by NWS Little Rock, AR

Home | Current Version | Previous Version | Graphics & Text | Print | Product List | Glossary On
Versions: 1 2 3 4 5 6 7 8 9 10 11 12 13 14 15 16 17 18 19 20 21 22 23 24 25 26 27 28 29 30 31 32 33 34 35 36 37 38 39 40 41 42 43 44 45 46 47 48 49 50
000
ASUS44 KLZK 301005
RWRLZK

WEATHER ROUNDUP FOR ARKANSAS
NATIONAL WEATHER SERVICE LITTLE ROCK AR
500 AM CDT TUE SEP 30 2014

NOTE: "FAIR" INDICATES FEW OR NO CLOUDS BELOW 12,000 FEET WITH NO
SIGNIFICANT WEATHER AND/OR OBSTRUCTIONS TO VISIBILITY.

ARZ001-003-010-029-301100-
NORTHWEST ARKANSAS

CITY           SKY/WX    TMP DP  RH WIND       PRES   REMARKS
FAYETTEVILLE   CLEAR     55  55 100 CALM      29.98F
FORT SMITH     CLEAR     63  60  90 E3        29.95R
HARRISON       PTCLDY    60  58  92 W5        29.99S
BENTONVILLE    CLEAR     59  55  88 CALM      29.97F
ROGERS         CLEAR     62  60  93 SE5       29.98F
SILOAM SPGS    CLEAR     61  54  77 E3        29.97F
HIGHFILL       CLEAR     56  56 100 CALM      29.96F
$$

ARZ004-005-016-301100-
NORTH CENTRAL ARKANSAS

CITY           SKY/WX    TMP DP  RH WIND       PRES   REMARKS
BATESVILLE     CLEAR     59  55  88 NW5       29.95S
FLIPPIN        CLEAR     57  52  82 CALM      29.98R
MTN HOME       PTCLDY    61  60  97 CALM      29.97S
$$

ARZ040-041-301100-
WEST CENTRAL ARKANSAS

CITY           SKY/WX    TMP DP  RH WIND       PRES   REMARKS
MENA             N/A     59  57  94 CALM      29.97S
MOUNT IDA      CLEAR     58  56  93 CALM      29.94S FOG
$$

ARZ009-017-025-026-028-301100-
NORTHEAST ARKANSAS

CITY           SKY/WX    TMP DP  RH WIND       PRES   REMARKS
CORNING          N/A     57  55  94 CALM      29.95S
JONESBORO      CLEAR     58  56  93 CALM      29.94R
NEWPORT        CLOUDY    59  57  92 NW3       29.96R
WALNUT RIDGE   CLEAR     59  54  82 N3        29.95S
BLYTHEVILLE    CLEAR     59  56  89 N3        29.94R
$$

ARZ022-023-033-042-044-301100-
CENTRAL ARKANSAS

CITY           SKY/WX    TMP DP  RH WIND       PRES   REMARKS
LITTLE ROCK    CLEAR     65  60  84 CALM      29.95R
N LITTLE ROCK    N/A     64  60  86 CALM      29.95R
JACKSONVILLE   CLEAR     59  56  89 CALM      29.95R
SEARCY         CLEAR     58  56  93 CALM      29.96R
HOT SPRINGS    CLEAR     61  58  90 CALM      29.96R
RUSSELLVILLE   CLEAR     60  58  92 CALM      29.95S
CLINTON        FAIR      57  55  94 CALM      29.98R FOG
$$

ARZ036-301100-
EAST ARKANSAS

CITY           SKY/WX    TMP DP  RH WIND       PRES   REMARKS
WEST MEMPHIS   CLEAR    N/A N/A N/A CALM      29.92R
$$

ARZ050-053-066-070-073-301100-
SOUTHWEST ARKANSAS

CITY           SKY/WX    TMP DP  RH WIND       PRES   REMARKS
ARKADELPHIA    FAIR      62  62 100 NE5       29.94S
CAMDEN         CLEAR     59  57  94 CALM      29.92S FOG
TEXARKANA      CLOUDY    68  65  90 NE5       29.92S
EL DORADO      CLEAR     62  60  93 CALM      29.92R
DE QUEEN       CLOUDY    62  62 100 CALM      29.91S FOG
$$

ARZ056-057-069-301100-
SOUTHEAST ARKANSAS

CITY           SKY/WX    TMP DP  RH WIND       PRES   REMARKS
PINE BLUFF     CLEAR     61  59  93 CALM      29.93R FOG
STUTTGART      CLEAR    N/A N/A N/A N6        29.94S
MONTICELLO     CLEAR     61  59  93 CALM      29.92R FOG

$$





USA.gov is the U.S. government's official web portal to all federal, state and local government web resources and services.